This is the latest recevied weather packets stored in our database for station/object W1HVD. If no packets are shown the sender has not sent any weather packets the latest 10 day(s).
| Time | Temp. | Humidity | Pressure | Rain* | Wind** | Luminosity | Snow |
|---|---|---|---|---|---|---|---|
| 1778193360 | 16.11° C | 37% | 1005.7 hPa | 0 mm | - | 30 W/m² | - |
| 1778193057 | 16.11° C | 32% | 1005.7 hPa | 0 mm | - | 32 W/m² | - |
| 1778192754 | 16.67° C | 35% | 1005.7 hPa | 0 mm | - | 33 W/m² | - |
| 1778192450 | 16.67° C | 36% | 1005.4 hPa | 0 mm | - | 35 W/m² | - |
| 1778192147 | 17.78° C | 36% | 1005.3 hPa | 0 mm | - | 48 W/m² | - |
| 1778191844 | 17.22° C | 36% | 1005.4 hPa | 0 mm | - | 103 W/m² | - |
| 1778191541 | 17.78° C | 35% | 1005.4 hPa | 0 mm | - | 112 W/m² | - |
| 1778191238 | 17.78° C | 35% | 1005.2 hPa | 0 mm | - | 126 W/m² | - |
| 1778190934 | 17.78° C | 31% | 1005.1 hPa | 0 mm | - | 138 W/m² | - |
| 1778190633 | 18.33° C | 32% | 1005.2 hPa | 0 mm | - | 152 W/m² | - |
| 1778190330 | 18.33° C | 32% | 1005.1 hPa | 0 mm | - | 167 W/m² | - |
| 1778190025 | 18.89° C | 33% | 1005.3 hPa | 0 mm | - | 181 W/m² | - |
| 1778189722 | 18.89° C | 31% | 1005 hPa | 0 mm | - | 195 W/m² | - |
| 1778189419 | 18.33° C | 32% | 1005 hPa | 0 mm | - | 210 W/m² | - |
| 1778189115 | 18.89° C | 36% | 1004.9 hPa | 0 mm | - | 224 W/m² | - |
| 1778188812 | 18.89° C | 34% | 1005.1 hPa | 0 mm | - | 240 W/m² | - |
| 1778188508 | 18.89° C | 34% | 1005.1 hPa | 0 mm | - | 253 W/m² | - |
| 1778188205 | 18.89° C | 31% | 1004.9 hPa | 0 mm | - | 268 W/m² | - |
| 1778187902 | 19.44° C | 32% | 1004.9 hPa | 0 mm | - | 284 W/m² | - |
| 1778187598 | 19.44° C | 30% | 1005.1 hPa | 0 mm | - | 298 W/m² | - |
| 1778187295 | 19.44° C | 32% | 1004.6 hPa | 0 mm | - | 314 W/m² | - |
| 1778186991 | 19.44° C | 31% | 1004.9 hPa | 0 mm | - | 329 W/m² | - |
| 1778186688 | 20° C | 29% | 1004.7 hPa | 0 mm | - | 344 W/m² | - |
| 1778186386 | 18.89° C | 34% | 1004.8 hPa | 0 mm | - | 359 W/m² | - |
| 1778186084 | 19.44° C | 30% | 1004.6 hPa | 0 mm | - | 375 W/m² | - |
* Rain latest hour (hover to see other rain measurements)
** Current wind speed in m/s (hover to see current wind gust speed)